#datetime,building,power
2022-07-16T00:01:00,pth,2.40
2022-07-16T00:02:00,pth,1.20
2022-07-16T00:04:00,pth,2.40
2022-07-16T00:06:00,pth,2.40
2022-07-16T00:07:00,pth,1.20
2022-07-16T00:09:00,pth,2.40
2022-07-16T00:11:00,pth,2.40
2022-07-16T00:12:00,pth,1.20
2022-07-16T00:13:00,pth,1.20
2022-07-16T00:15:00,pth,2.40
2022-07-16T00:17:00,pth,2.40
2022-07-16T00:19:00,pth,2.40
2022-07-16T00:20:00,pth,1.20
2022-07-16T00:22:00,pth,2.40
2022-07-16T00:23:00,pth,1.20
2022-07-16T00:24:00,pth,1.20
2022-07-16T00:25:00,pth,1.20
2022-07-16T00:27:00,pth,2.40
2022-07-16T00:30:00,pth,2.40
2022-07-16T00:32:00,pth,2.40
2022-07-16T00:33:00,pth,1.20
2022-07-16T00:34:00,pth,1.20
2022-07-16T00:36:00,pth,2.40
2022-07-16T00:37:00,pth,1.20
2022-07-16T00:39:00,pth,1.20
2022-07-16T00:41:00,pth,2.40
2022-07-16T00:43:00,pth,2.40
2022-07-16T00:44:00,pth,1.20
2022-07-16T00:46:00,pth,2.40
2022-07-16T00:47:00,pth,1.20
2022-07-16T00:48:00,pth,2.40
2022-07-16T00:50:00,pth,4.80
2022-07-16T00:52:00,pth,4.80
2022-07-16T00:53:00,pth,2.40
2022-07-16T00:55:00,pth,6.00
2022-07-16T00:57:00,pth,2.40
2022-07-16T00:59:00,pth,3.60
2022-07-16T01:00:00,pth,1.20
2022-07-16T01:02:00,pth,2.40
2022-07-16T01:03:00,pth,1.20
2022-07-16T01:04:00,pth,1.20
2022-07-16T01:05:00,pth,2.40
2022-07-16T01:07:00,pth,2.40
2022-07-16T01:09:00,pth,3.60
2022-07-16T01:11:00,pth,3.60
2022-07-16T01:12:00,pth,1.20
2022-07-16T01:14:00,pth,2.40
2022-07-16T01:15:00,pth,1.20
2022-07-16T01:17:00,pth,2.40
2022-07-16T01:18:00,pth,1.20
2022-07-16T01:20:00,pth,2.40
2022-07-16T01:21:00,pth,2.40
2022-07-16T01:22:00,pth,1.20
2022-07-16T01:24:00,pth,2.40
2022-07-16T01:26:00,pth,2.40
2022-07-16T01:28:00,pth,1.20
2022-07-16T01:29:00,pth,1.20
2022-07-16T01:31:00,pth,2.40
2022-07-16T01:33:00,pth,3.60
2022-07-16T01:34:00,pth,1.20
2022-07-16T01:36:00,pth,2.40
2022-07-16T01:38:00,pth,2.40
2022-07-16T01:40:00,pth,1.20
2022-07-16T01:42:00,pth,2.40
2022-07-16T01:43:00,pth,2.40
2022-07-16T01:45:00,pth,2.40
2022-07-16T01:46:00,pth,1.20
2022-07-16T01:48:00,pth,2.40
2022-07-16T01:49:00,pth,1.20
2022-07-16T01:51:00,pth,2.40
2022-07-16T01:53:00,pth,1.20
2022-07-16T01:54:00,pth,1.20
2022-07-16T01:56:00,pth,2.40
2022-07-16T01:57:00,pth,2.40
2022-07-16T01:59:00,pth,2.40
2022-07-16T02:01:00,pth,1.20
2022-07-16T02:03:00,pth,2.40
2022-07-16T02:05:00,pth,2.40
2022-07-16T02:07:00,pth,1.20
2022-07-16T02:09:00,pth,2.40
2022-07-16T02:10:00,pth,1.20
2022-07-16T02:12:00,pth,2.40
2022-07-16T02:14:00,pth,2.40
2022-07-16T02:15:00,pth,1.20
2022-07-16T02:17:00,pth,1.20
2022-07-16T02:18:00,pth,1.20
2022-07-16T02:20:00,pth,2.40
2022-07-16T02:22:00,pth,2.40
2022-07-16T02:23:00,pth,1.20
2022-07-16T02:25:00,pth,2.40
2022-07-16T02:27:00,pth,2.40
2022-07-16T02:29:00,pth,1.20
2022-07-16T02:31:00,pth,2.40
2022-07-16T02:32:00,pth,1.20
2022-07-16T02:34:00,pth,2.40
2022-07-16T02:35:00,pth,1.20
2022-07-16T02:37:00,pth,2.40
2022-07-16T02:38:00,pth,1.20
2022-07-16T02:39:00,pth,1.20
2022-07-16T02:41:00,pth,1.20
2022-07-16T02:43:00,pth,2.40
2022-07-16T02:44:00,pth,1.20
2022-07-16T02:46:00,pth,1.20
2022-07-16T02:48:00,pth,2.40
2022-07-16T02:50:00,pth,2.40
2022-07-16T02:51:00,pth,1.20
2022-07-16T02:53:00,pth,2.40
2022-07-16T02:55:00,pth,2.40
2022-07-16T02:57:00,pth,1.20
2022-07-16T02:58:00,pth,1.20
2022-07-16T03:00:00,pth,2.40
2022-07-16T03:03:00,pth,2.40
2022-07-16T03:05:00,pth,2.40
2022-07-16T03:06:00,pth,1.20
2022-07-16T03:08:00,pth,2.40
2022-07-16T03:10:00,pth,1.20
2022-07-16T03:12:00,pth,2.40
2022-07-16T03:13:00,pth,1.20
2022-07-16T03:15:00,pth,2.40
2022-07-16T03:16:00,pth,1.20
2022-07-16T03:18:00,pth,2.40
2022-07-16T03:21:00,pth,2.40
2022-07-16T03:22:00,pth,1.20
2022-07-16T03:24:00,pth,2.40
2022-07-16T03:26:00,pth,1.20
2022-07-16T03:28:00,pth,2.40
2022-07-16T03:30:00,pth,2.40
2022-07-16T03:31:00,pth,2.40
2022-07-16T03:33:00,pth,1.20
2022-07-16T03:35:00,pth,2.40
2022-07-16T03:36:00,pth,1.20
2022-07-16T03:38:00,pth,2.40
2022-07-16T03:40:00,pth,1.20
2022-07-16T03:42:00,pth,3.60
2022-07-16T03:43:00,pth,1.20
2022-07-16T03:45:00,pth,2.40
2022-07-16T03:47:00,pth,2.40
2022-07-16T03:49:00,pth,1.20
2022-07-16T03:51:00,pth,2.40
2022-07-16T03:53:00,pth,2.40
2022-07-16T03:54:00,pth,1.20
2022-07-16T03:56:00,pth,2.40
2022-07-16T03:58:00,pth,2.40
2022-07-16T03:59:00,pth,1.20
2022-07-16T04:00:00,pth,1.20
2022-07-16T04:02:00,pth,2.40
2022-07-16T04:04:00,pth,1.20
2022-07-16T04:06:00,pth,2.40
2022-07-16T04:08:00,pth,2.40
2022-07-16T04:10:00,pth,2.40
2022-07-16T04:11:00,pth,1.20
2022-07-16T04:13:00,pth,2.40
2022-07-16T04:15:00,pth,2.40
2022-07-16T04:16:00,pth,1.20
2022-07-16T04:18:00,pth,2.40
2022-07-16T04:20:00,pth,2.40
2022-07-16T04:21:00,pth,1.20
2022-07-16T04:23:00,pth,2.40
2022-07-16T04:25:00,pth,2.40
2022-07-16T04:27:00,pth,2.40
2022-07-16T04:29:00,pth,2.40
2022-07-16T04:30:00,pth,1.20
2022-07-16T04:32:00,pth,1.20
2022-07-16T04:33:00,pth,1.20
2022-07-16T04:35:00,pth,2.40
2022-07-16T04:37:00,pth,1.20
2022-07-16T04:39:00,pth,2.40
2022-07-16T04:41:00,pth,2.40
2022-07-16T04:42:00,pth,2.40
2022-07-16T04:44:00,pth,1.20
2022-07-16T04:45:00,pth,1.20
2022-07-16T04:46:00,pth,1.20
2022-07-16T04:48:00,pth,2.40
2022-07-16T04:50:00,pth,2.40
2022-07-16T04:51:00,pth,1.20
2022-07-16T04:53:00,pth,1.20
2022-07-16T04:54:00,pth,1.20
2022-07-16T04:56:00,pth,2.40
2022-07-16T04:58:00,pth,3.60
2022-07-16T05:00:00,pth,1.20
2022-07-16T05:02:00,pth,2.40
2022-07-16T05:04:00,pth,2.40
2022-07-16T05:06:00,pth,1.20
2022-07-16T05:07:00,pth,1.20
2022-07-16T05:09:00,pth,2.40
2022-07-16T05:11:00,pth,2.40
2022-07-16T05:13:00,pth,2.40
2022-07-16T05:15:00,pth,2.40
2022-07-16T05:16:00,pth,1.20
2022-07-16T05:18:00,pth,2.40
2022-07-16T05:19:00,pth,1.20
2022-07-16T05:21:00,pth,2.40
2022-07-16T05:23:00,pth,1.20
2022-07-16T05:25:00,pth,3.60
2022-07-16T05:27:00,pth,2.40
2022-07-16T05:29:00,pth,2.40
2022-07-16T05:31:00,pth,2.40
2022-07-16T05:32:00,pth,1.20
2022-07-16T05:35:00,pth,2.40
2022-07-16T05:37:00,pth,2.40
2022-07-16T05:39:00,pth,2.40
2022-07-16T05:40:00,pth,1.20
2022-07-16T05:41:00,pth,1.20
2022-07-16T05:43:00,pth,3.60
2022-07-16T05:44:00,pth,1.20
2022-07-16T05:47:00,pth,2.40
2022-07-16T05:49:00,pth,2.40
2022-07-16T05:51:00,pth,2.40
2022-07-16T05:53:00,pth,2.40
2022-07-16T05:54:00,pth,1.20
2022-07-16T05:56:00,pth,2.40
2022-07-16T05:58:00,pth,2.40
2022-07-16T06:00:00,pth,2.40
2022-07-16T06:02:00,pth,2.40
2022-07-16T06:03:00,pth,1.20
2022-07-16T06:04:00,pth,1.20
2022-07-16T06:06:00,pth,2.40
2022-07-16T06:08:00,pth,2.40
2022-07-16T06:10:00,pth,1.20
2022-07-16T06:12:00,pth,2.40
2022-07-16T06:14:00,pth,2.40
2022-07-16T06:16:00,pth,2.40
2022-07-16T06:19:00,pth,2.40
2022-07-16T06:20:00,pth,1.20
2022-07-16T06:22:00,pth,1.20
2022-07-16T06:23:00,pth,1.20
2022-07-16T06:25:00,pth,1.20
2022-07-16T06:27:00,pth,2.40
2022-07-16T06:29:00,pth,2.40
2022-07-16T06:30:00,pth,1.20
2022-07-16T06:31:00,pth,1.20
2022-07-16T06:33:00,pth,1.20
2022-07-16T06:34:00,pth,1.20
2022-07-16T06:37:00,pth,1.20
2022-07-16T06:38:00,pth,2.40
2022-07-16T06:39:00,pth,1.20
2022-07-16T06:41:00,pth,1.20
2022-07-16T06:43:00,pth,2.40
2022-07-16T06:44:00,pth,1.20
2022-07-16T06:46:00,pth,2.40
2022-07-16T06:48:00,pth,1.20
2022-07-16T06:50:00,pth,1.20
2022-07-16T06:52:00,pth,2.40
2022-07-16T06:55:00,pth,2.40
2022-07-16T06:56:00,pth,1.20
2022-07-16T06:58:00,pth,1.20
2022-07-16T07:00:00,pth,2.40
2022-07-16T07:03:00,pth,2.40
2022-07-16T07:05:00,pth,1.20
2022-07-16T07:07:00,pth,1.20
2022-07-16T07:09:00,pth,1.20
2022-07-16T07:11:00,pth,2.40
2022-07-16T07:13:00,pth,2.40
2022-07-16T07:15:00,pth,1.20
2022-07-16T07:17:00,pth,1.20
2022-07-16T07:19:00,pth,1.20
2022-07-16T07:21:00,pth,2.40
2022-07-16T07:23:00,pth,1.20
2022-07-16T07:25:00,pth,1.20
2022-07-16T07:27:00,pth,2.40
2022-07-16T07:28:00,pth,1.20
2022-07-16T07:30:00,pth,1.20
2022-07-16T07:32:00,pth,2.40
2022-07-16T07:34:00,pth,2.40
2022-07-16T07:36:00,pth,2.40
2022-07-16T07:38:00,pth,4.80
2022-07-16T07:40:00,pth,4.80
2022-07-16T07:42:00,pth,4.80
2022-07-16T07:43:00,pth,2.40
2022-07-16T07:45:00,pth,4.80
2022-07-16T07:47:00,pth,1.20
2022-07-16T07:49:00,pth,2.40
2022-07-16T07:51:00,pth,1.20
2022-07-16T07:52:00,pth,1.20
2022-07-16T07:55:00,pth,2.40
2022-07-16T07:56:00,pth,1.20
2022-07-16T07:58:00,pth,2.40
2022-07-16T08:00:00,pth,1.20
2022-07-16T08:02:00,pth,1.20
2022-07-16T08:03:00,pth,1.20
2022-07-16T08:05:00,pth,1.20
2022-07-16T08:07:00,pth,1.20
2022-07-16T08:09:00,pth,1.20
2022-07-16T08:11:00,pth,2.40
2022-07-16T08:13:00,pth,2.40
2022-07-16T08:16:00,pth,2.40
2022-07-16T08:19:00,pth,1.20
2022-07-16T08:21:00,pth,1.20
2022-07-16T08:23:00,pth,1.20
2022-07-16T08:24:00,pth,1.20
2022-07-16T08:26:00,pth,2.40
2022-07-16T08:28:00,pth,2.40
2022-07-16T08:29:00,pth,1.20
2022-07-16T08:30:00,pth,1.20
2022-07-16T08:32:00,pth,2.40
2022-07-16T08:33:00,pth,1.20
2022-07-16T08:35:00,pth,2.40
2022-07-16T08:37:00,pth,1.20
2022-07-16T08:39:00,pth,2.40
2022-07-16T08:41:00,pth,2.40
2022-07-16T08:42:00,pth,2.40
2022-07-16T08:43:00,pth,1.20
2022-07-16T08:45:00,pth,2.40
2022-07-16T08:47:00,pth,1.20
2022-07-16T08:48:00,pth,1.20
2022-07-16T08:50:00,pth,1.20
2022-07-16T08:52:00,pth,2.40
2022-07-16T08:53:00,pth,1.20
2022-07-16T08:54:00,pth,2.40
2022-07-16T08:56:00,pth,2.40
2022-07-16T08:58:00,pth,1.20
2022-07-16T09:00:00,pth,2.40
2022-07-16T09:01:00,pth,1.20
2022-07-16T09:03:00,pth,2.40
2022-07-16T09:04:00,pth,1.20
2022-07-16T09:06:00,pth,2.40
2022-07-16T09:08:00,pth,2.40
2022-07-16T09:10:00,pth,2.40
2022-07-16T09:12:00,pth,3.60
2022-07-16T09:14:00,pth,2.40
2022-07-16T09:16:00,pth,2.40
2022-07-16T09:18:00,pth,2.40
2022-07-16T09:20:00,pth,1.20
2022-07-16T09:21:00,pth,1.20
2022-07-16T09:23:00,pth,2.40
2022-07-16T09:25:00,pth,2.40
2022-07-16T09:26:00,pth,2.40
2022-07-16T09:28:00,pth,1.20
2022-07-16T09:29:00,pth,1.20
2022-07-16T09:31:00,pth,1.20
2022-07-16T09:32:00,pth,1.20
2022-07-16T09:34:00,pth,2.40
2022-07-16T09:35:00,pth,1.20
2022-07-16T09:37:00,pth,2.40
2022-07-16T09:38:00,pth,1.20
2022-07-16T09:40:00,pth,3.60
2022-07-16T09:42:00,pth,2.40
2022-07-16T09:44:00,pth,1.20
2022-07-16T09:46:00,pth,2.40
2022-07-16T09:48:00,pth,2.40
2022-07-16T09:51:00,pth,2.40
2022-07-16T09:53:00,pth,3.60
2022-07-16T09:55:00,pth,3.60
2022-07-16T09:56:00,pth,2.40
2022-07-16T09:58:00,pth,4.80
2022-07-16T10:00:00,pth,1.20
2022-07-16T10:02:00,pth,2.40
2022-07-16T10:04:00,pth,2.40
2022-07-16T10:05:00,pth,1.20
2022-07-16T10:07:00,pth,2.40
2022-07-16T10:09:00,pth,3.60
2022-07-16T10:11:00,pth,2.40
2022-07-16T10:13:00,pth,1.20
2022-07-16T10:14:00,pth,1.20
2022-07-16T10:16:00,pth,2.40
2022-07-16T10:18:00,pth,1.20
2022-07-16T10:20:00,pth,2.40
2022-07-16T10:22:00,pth,3.60
2022-07-16T10:24:00,pth,2.40
2022-07-16T10:26:00,pth,1.20
2022-07-16T10:27:00,pth,1.20
2022-07-16T10:29:00,pth,2.40
2022-07-16T10:30:00,pth,1.20
2022-07-16T10:32:00,pth,1.20
2022-07-16T10:33:00,pth,1.20
2022-07-16T10:35:00,pth,3.60
2022-07-16T10:38:00,pth,2.40
2022-07-16T10:40:00,pth,2.40
2022-07-16T10:42:00,pth,1.20
2022-07-16T10:43:00,pth,1.20
2022-07-16T10:45:00,pth,2.40
2022-07-16T10:47:00,pth,2.40
2022-07-16T10:49:00,pth,2.40
2022-07-16T10:51:00,pth,2.40
2022-07-16T10:53:00,pth,2.40
2022-07-16T10:55:00,pth,1.20
2022-07-16T10:56:00,pth,1.20
2022-07-16T10:59:00,pth,2.40
2022-07-16T11:01:00,pth,1.20
2022-07-16T11:03:00,pth,2.40
2022-07-16T11:05:00,pth,2.40
2022-07-16T11:07:00,pth,2.40
2022-07-16T11:09:00,pth,1.20
2022-07-16T11:10:00,pth,1.20
2022-07-16T11:12:00,pth,3.60
2022-07-16T11:14:00,pth,3.60
2022-07-16T11:16:00,pth,2.40
2022-07-16T11:18:00,pth,3.60
2022-07-16T11:20:00,pth,2.40
2022-07-16T11:22:00,pth,2.40
2022-07-16T11:23:00,pth,2.40
2022-07-16T11:25:00,pth,2.40
2022-07-16T11:27:00,pth,2.40
2022-07-16T11:28:00,pth,1.20
2022-07-16T11:30:00,pth,2.40
2022-07-16T11:31:00,pth,1.20
2022-07-16T11:32:00,pth,2.40
2022-07-16T11:34:00,pth,2.40
2022-07-16T11:35:00,pth,1.20
2022-07-16T11:37:00,pth,1.20
2022-07-16T11:39:00,pth,1.20
2022-07-16T11:41:00,pth,2.40
2022-07-16T11:43:00,pth,2.40
2022-07-16T11:44:00,pth,1.20
2022-07-16T11:47:00,pth,2.40
2022-07-16T11:49:00,pth,1.20
2022-07-16T11:51:00,pth,2.40
2022-07-16T11:53:00,pth,1.20
2022-07-16T11:55:00,pth,9.60
2022-07-16T11:57:00,pth,14.40
2022-07-16T11:59:00,pth,14.40
2022-07-16T12:01:00,pth,15.60
2022-07-16T12:03:00,pth,13.20
2022-07-16T12:05:00,pth,14.40
2022-07-16T12:07:00,pth,13.20
2022-07-16T12:08:00,pth,7.20
2022-07-16T12:10:00,pth,13.20
2022-07-16T12:11:00,pth,6.00
2022-07-16T12:13:00,pth,13.20
2022-07-16T12:15:00,pth,13.20
2022-07-16T12:17:00,pth,14.40
2022-07-16T12:18:00,pth,6.00
2022-07-16T12:20:00,pth,14.40
2022-07-16T12:21:00,pth,6.00
2022-07-16T12:23:00,pth,13.20
2022-07-16T12:25:00,pth,13.20
2022-07-16T12:27:00,pth,13.20
2022-07-16T12:29:00,pth,10.80
2022-07-16T12:30:00,pth,1.20
2022-07-16T12:32:00,pth,9.60
2022-07-16T12:34:00,pth,12.00
2022-07-16T12:36:00,pth,7.20
2022-07-16T12:38:00,pth,6.00
2022-07-16T12:40:00,pth,13.20
2022-07-16T12:42:00,pth,8.40
2022-07-16T12:44:00,pth,3.60
2022-07-16T12:45:00,pth,6.00
2022-07-16T12:47:00,pth,13.20
2022-07-16T12:48:00,pth,4.80
2022-07-16T12:50:00,pth,1.20
2022-07-16T12:52:00,pth,12.00
2022-07-16T12:54:00,pth,6.00
2022-07-16T12:56:00,pth,3.60
2022-07-16T12:58:00,pth,2.40
2022-07-16T12:59:00,pth,1.20
2022-07-16T13:01:00,pth,2.40
2022-07-16T13:03:00,pth,3.60
2022-07-16T13:04:00,pth,1.20
2022-07-16T13:06:00,pth,2.40
2022-07-16T13:08:00,pth,1.20
2022-07-16T13:10:00,pth,2.40
2022-07-16T13:11:00,pth,1.20
2022-07-16T13:13:00,pth,1.20
2022-07-16T13:14:00,pth,1.20
2022-07-16T13:16:00,pth,1.20
2022-07-16T13:18:00,pth,2.40
2022-07-16T13:19:00,pth,1.20
2022-07-16T13:21:00,pth,2.40
2022-07-16T13:23:00,pth,2.40
2022-07-16T13:25:00,pth,1.20
2022-07-16T13:27:00,pth,1.20
2022-07-16T13:29:00,pth,2.40
2022-07-16T13:30:00,pth,1.20
2022-07-16T13:32:00,pth,1.20
2022-07-16T13:34:00,pth,2.40
2022-07-16T13:36:00,pth,2.40
2022-07-16T13:38:00,pth,1.20
2022-07-16T13:40:00,pth,2.40
2022-07-16T13:42:00,pth,1.20
2022-07-16T13:43:00,pth,1.20
2022-07-16T13:45:00,pth,1.20
2022-07-16T13:47:00,pth,2.40
2022-07-16T13:48:00,pth,1.20
2022-07-16T13:50:00,pth,1.20
2022-07-16T13:52:00,pth,2.40
2022-07-16T13:53:00,pth,1.20
2022-07-16T13:55:00,pth,1.20
2022-07-16T13:57:00,pth,3.60
2022-07-16T13:58:00,pth,2.40
2022-07-16T14:00:00,pth,3.60
2022-07-16T14:02:00,pth,3.60
2022-07-16T14:04:00,pth,3.60
2022-07-16T14:05:00,pth,1.20
2022-07-16T14:06:00,pth,1.20
2022-07-16T14:08:00,pth,2.40
2022-07-16T14:09:00,pth,1.20
2022-07-16T14:11:00,pth,1.20
2022-07-16T14:13:00,pth,2.40
2022-07-16T14:15:00,pth,1.20
2022-07-16T14:17:00,pth,2.40
2022-07-16T14:19:00,pth,1.20
2022-07-16T14:21:00,pth,2.40
2022-07-16T14:23:00,pth,2.40
2022-07-16T14:25:00,pth,1.20
2022-07-16T14:26:00,pth,1.20
2022-07-16T14:28:00,pth,1.20
2022-07-16T14:29:00,pth,1.20
2022-07-16T14:31:00,pth,2.40
2022-07-16T14:32:00,pth,1.20
2022-07-16T14:34:00,pth,2.40
2022-07-16T14:36:00,pth,2.40
2022-07-16T14:37:00,pth,2.40
2022-07-16T14:38:00,pth,2.40
2022-07-16T14:40:00,pth,4.80
2022-07-16T14:42:00,pth,4.80
2022-07-16T14:44:00,pth,2.40
2022-07-16T14:46:00,pth,2.40
2022-07-16T14:48:00,pth,2.40
2022-07-16T14:50:00,pth,2.40
2022-07-16T14:51:00,pth,1.20
2022-07-16T14:54:00,pth,2.40
2022-07-16T14:55:00,pth,1.20
2022-07-16T14:57:00,pth,2.40
2022-07-16T14:59:00,pth,1.20
2022-07-16T15:00:00,pth,1.20
2022-07-16T15:01:00,pth,1.20
2022-07-16T15:03:00,pth,2.40
2022-07-16T15:06:00,pth,2.40
2022-07-16T15:07:00,pth,2.40
2022-07-16T15:09:00,pth,1.20
2022-07-16T15:11:00,pth,2.40
2022-07-16T15:13:00,pth,2.40
2022-07-16T15:15:00,pth,2.40
2022-07-16T15:17:00,pth,1.20
2022-07-16T15:18:00,pth,1.20
2022-07-16T15:19:00,pth,1.20
2022-07-16T15:20:00,pth,1.20
2022-07-16T15:22:00,pth,2.40
2022-07-16T15:24:00,pth,2.40
2022-07-16T15:27:00,pth,2.40
2022-07-16T15:29:00,pth,2.40
2022-07-16T15:32:00,pth,2.40
2022-07-16T15:33:00,pth,1.20
2022-07-16T15:35:00,pth,1.20
2022-07-16T15:37:00,pth,2.40
2022-07-16T15:39:00,pth,2.40
2022-07-16T15:41:00,pth,1.20
2022-07-16T15:43:00,pth,2.40
2022-07-16T15:45:00,pth,2.40
2022-07-16T15:47:00,pth,2.40
2022-07-16T15:49:00,pth,1.20
2022-07-16T15:51:00,pth,2.40
2022-07-16T15:53:00,pth,2.40
2022-07-16T15:55:00,pth,2.40
2022-07-16T15:57:00,pth,1.20
2022-07-16T15:58:00,pth,1.20
2022-07-16T15:59:00,pth,1.20
2022-07-16T16:01:00,pth,1.20
2022-07-16T16:03:00,pth,2.40
2022-07-16T16:04:00,pth,1.20
2022-07-16T16:06:00,pth,2.40
2022-07-16T16:08:00,pth,2.40
2022-07-16T16:10:00,pth,1.20
2022-07-16T16:11:00,pth,1.20
2022-07-16T16:13:00,pth,1.20
2022-07-16T16:14:00,pth,1.20
2022-07-16T16:16:00,pth,2.40
2022-07-16T16:18:00,pth,2.40
2022-07-16T16:20:00,pth,2.40
2022-07-16T16:22:00,pth,2.40
2022-07-16T16:24:00,pth,2.40
2022-07-16T16:26:00,pth,2.40
2022-07-16T16:28:00,pth,1.20
2022-07-16T16:29:00,pth,1.20
2022-07-16T16:31:00,pth,3.60
2022-07-16T16:33:00,pth,1.20
2022-07-16T16:35:00,pth,2.40
2022-07-16T16:38:00,pth,2.40
2022-07-16T16:39:00,pth,2.40
2022-07-16T16:41:00,pth,1.20
2022-07-16T16:42:00,pth,1.20
2022-07-16T16:44:00,pth,2.40
2022-07-16T16:46:00,pth,3.60
2022-07-16T16:47:00,pth,1.20
2022-07-16T16:49:00,pth,2.40
2022-07-16T16:51:00,pth,1.20
2022-07-16T16:53:00,pth,3.60
2022-07-16T16:55:00,pth,2.40
2022-07-16T16:56:00,pth,1.20
2022-07-16T16:57:00,pth,1.20
2022-07-16T17:00:00,pth,3.60
2022-07-16T17:02:00,pth,2.40
2022-07-16T17:04:00,pth,2.40
2022-07-16T17:05:00,pth,1.20
2022-07-16T17:07:00,pth,2.40
2022-07-16T17:09:00,pth,3.60
2022-07-16T17:10:00,pth,2.40
2022-07-16T17:12:00,pth,3.60
2022-07-16T17:13:00,pth,1.20
2022-07-16T17:15:00,pth,3.60
2022-07-16T17:17:00,pth,2.40
2022-07-16T17:18:00,pth,2.40
2022-07-16T17:20:00,pth,2.40
2022-07-16T17:22:00,pth,2.40
2022-07-16T17:24:00,pth,3.60
2022-07-16T17:25:00,pth,1.20
2022-07-16T17:27:00,pth,3.60
2022-07-16T17:29:00,pth,2.40
2022-07-16T17:31:00,pth,3.60
2022-07-16T17:32:00,pth,2.40
2022-07-16T17:34:00,pth,3.60
2022-07-16T17:35:00,pth,1.20
2022-07-16T17:36:00,pth,1.20
2022-07-16T17:37:00,pth,1.20
2022-07-16T17:39:00,pth,4.80
2022-07-16T17:41:00,pth,3.60
2022-07-16T17:43:00,pth,4.80
2022-07-16T17:44:00,pth,2.40
2022-07-16T17:46:00,pth,3.60
2022-07-16T17:48:00,pth,4.80
2022-07-16T17:50:00,pth,3.60
2022-07-16T17:51:00,pth,2.40
2022-07-16T17:53:00,pth,3.60
2022-07-16T17:55:00,pth,3.60
2022-07-16T17:57:00,pth,3.60
2022-07-16T17:59:00,pth,3.60
2022-07-16T18:01:00,pth,4.80
2022-07-16T18:03:00,pth,3.60
2022-07-16T18:05:00,pth,3.60
2022-07-16T18:06:00,pth,1.20
2022-07-16T18:08:00,pth,4.80
2022-07-16T18:10:00,pth,3.60
2022-07-16T18:11:00,pth,3.60
2022-07-16T18:12:00,pth,2.40
2022-07-16T18:14:00,pth,4.80
2022-07-16T18:16:00,pth,3.60
2022-07-16T18:18:00,pth,3.60
2022-07-16T18:19:00,pth,2.40
2022-07-16T18:21:00,pth,2.40
2022-07-16T18:23:00,pth,2.40
2022-07-16T18:24:00,pth,1.20
2022-07-16T18:26:00,pth,4.80
2022-07-16T18:28:00,pth,3.60
2022-07-16T18:30:00,pth,3.60
2022-07-16T18:32:00,pth,3.60
2022-07-16T18:33:00,pth,2.40
2022-07-16T18:35:00,pth,3.60
2022-07-16T18:37:00,pth,4.80
2022-07-16T18:39:00,pth,3.60
2022-07-16T18:41:00,pth,4.80
2022-07-16T18:43:00,pth,3.60
2022-07-16T18:45:00,pth,4.80
2022-07-16T18:46:00,pth,1.20
2022-07-16T18:48:00,pth,4.80
2022-07-16T18:50:00,pth,3.60
2022-07-16T18:52:00,pth,3.60
2022-07-16T18:54:00,pth,3.60
2022-07-16T18:56:00,pth,3.60
2022-07-16T18:57:00,pth,2.40
2022-07-16T18:58:00,pth,1.20
2022-07-16T19:00:00,pth,3.60
2022-07-16T19:02:00,pth,3.60
2022-07-16T19:03:00,pth,2.40
2022-07-16T19:04:00,pth,1.20
2022-07-16T19:06:00,pth,3.60
2022-07-16T19:07:00,pth,2.40
2022-07-16T19:09:00,pth,3.60
2022-07-16T19:11:00,pth,3.60
2022-07-16T19:12:00,pth,2.40
2022-07-16T19:13:00,pth,2.40
2022-07-16T19:15:00,pth,7.20
2022-07-16T19:17:00,pth,4.80
2022-07-16T19:18:00,pth,3.60
2022-07-16T19:20:00,pth,6.00
2022-07-16T19:22:00,pth,7.20
2022-07-16T19:24:00,pth,4.80
2022-07-16T19:26:00,pth,6.00
2022-07-16T19:27:00,pth,3.60
2022-07-16T19:29:00,pth,4.80
2022-07-16T19:31:00,pth,3.60
2022-07-16T19:33:00,pth,2.40
2022-07-16T19:35:00,pth,3.60
2022-07-16T19:36:00,pth,1.20
2022-07-16T19:38:00,pth,3.60
2022-07-16T19:40:00,pth,3.60
2022-07-16T19:42:00,pth,3.60
2022-07-16T19:43:00,pth,1.20
2022-07-16T19:45:00,pth,2.40
2022-07-16T19:46:00,pth,2.40
2022-07-16T19:48:00,pth,3.60
2022-07-16T19:50:00,pth,3.60
2022-07-16T19:51:00,pth,2.40
2022-07-16T19:53:00,pth,2.40
2022-07-16T19:54:00,pth,2.40
2022-07-16T19:56:00,pth,3.60
2022-07-16T19:57:00,pth,1.20
2022-07-16T19:58:00,pth,2.40
2022-07-16T20:00:00,pth,2.40
2022-07-16T20:02:00,pth,2.40
2022-07-16T20:03:00,pth,2.40
2022-07-16T20:04:00,pth,1.20
2022-07-16T20:05:00,pth,2.40
2022-07-16T20:07:00,pth,2.40
2022-07-16T20:09:00,pth,3.60
2022-07-16T20:11:00,pth,3.60
2022-07-16T20:13:00,pth,2.40
2022-07-16T20:15:00,pth,4.80
2022-07-16T20:17:00,pth,3.60
2022-07-16T20:18:00,pth,1.20
2022-07-16T20:19:00,pth,1.20
2022-07-16T20:21:00,pth,3.60
2022-07-16T20:23:00,pth,2.40
2022-07-16T20:24:00,pth,1.20
2022-07-16T20:26:00,pth,3.60
2022-07-16T20:28:00,pth,2.40
2022-07-16T20:29:00,pth,2.40
2022-07-16T20:31:00,pth,3.60
2022-07-16T20:33:00,pth,3.60
2022-07-16T20:35:00,pth,3.60
2022-07-16T20:36:00,pth,1.20
2022-07-16T20:38:00,pth,4.80
2022-07-16T20:40:00,pth,4.80
2022-07-16T20:42:00,pth,6.00
2022-07-16T20:43:00,pth,2.40
2022-07-16T20:45:00,pth,4.80
2022-07-16T20:47:00,pth,4.80
2022-07-16T20:48:00,pth,1.20
2022-07-16T20:50:00,pth,3.60
2022-07-16T20:52:00,pth,2.40
2022-07-16T20:53:00,pth,1.20
2022-07-16T20:55:00,pth,3.60
2022-07-16T20:56:00,pth,1.20
2022-07-16T20:58:00,pth,2.40
2022-07-16T20:59:00,pth,1.20
2022-07-16T21:01:00,pth,3.60
2022-07-16T21:03:00,pth,3.60
2022-07-16T21:04:00,pth,2.40
2022-07-16T21:06:00,pth,3.60
2022-07-16T21:08:00,pth,2.40
2022-07-16T21:10:00,pth,2.40
2022-07-16T21:12:00,pth,2.40
2022-07-16T21:14:00,pth,3.60
2022-07-16T21:16:00,pth,4.80
2022-07-16T21:18:00,pth,3.60
2022-07-16T21:20:00,pth,3.60
2022-07-16T21:21:00,pth,2.40
2022-07-16T21:22:00,pth,1.20
2022-07-16T21:24:00,pth,3.60
2022-07-16T21:26:00,pth,3.60
2022-07-16T21:28:00,pth,3.60
2022-07-16T21:29:00,pth,1.20
2022-07-16T21:30:00,pth,2.40
2022-07-16T21:32:00,pth,2.40
2022-07-16T21:34:00,pth,2.40
2022-07-16T21:36:00,pth,2.40
2022-07-16T21:37:00,pth,1.20
2022-07-16T21:39:00,pth,3.60
2022-07-16T21:40:00,pth,1.20
2022-07-16T21:42:00,pth,3.60
2022-07-16T21:44:00,pth,2.40
2022-07-16T21:45:00,pth,1.20
2022-07-16T21:46:00,pth,1.20
2022-07-16T21:48:00,pth,3.60
2022-07-16T21:50:00,pth,2.40
2022-07-16T21:51:00,pth,2.40
2022-07-16T21:52:00,pth,2.40
2022-07-16T21:53:00,pth,2.40
2022-07-16T21:54:00,pth,1.20
2022-07-16T21:56:00,pth,2.40
2022-07-16T21:58:00,pth,2.40
2022-07-16T21:59:00,pth,1.20
2022-07-16T22:01:00,pth,2.40
2022-07-16T22:03:00,pth,3.60
2022-07-16T22:04:00,pth,1.20
2022-07-16T22:06:00,pth,3.60
2022-07-16T22:07:00,pth,1.20
2022-07-16T22:09:00,pth,2.40
2022-07-16T22:11:00,pth,3.60
2022-07-16T22:12:00,pth,1.20
2022-07-16T22:13:00,pth,1.20
2022-07-16T22:15:00,pth,6.00
2022-07-16T22:17:00,pth,2.40
2022-07-16T22:19:00,pth,2.40
2022-07-16T22:21:00,pth,3.60
2022-07-16T22:22:00,pth,1.20
2022-07-16T22:24:00,pth,2.40
2022-07-16T22:26:00,pth,2.40
2022-07-16T22:28:00,pth,3.60
2022-07-16T22:30:00,pth,2.40
2022-07-16T22:31:00,pth,1.20
2022-07-16T22:33:00,pth,3.60
2022-07-16T22:35:00,pth,3.60
2022-07-16T22:36:00,pth,1.20
2022-07-16T22:38:00,pth,4.80
2022-07-16T22:39:00,pth,1.20
2022-07-16T22:41:00,pth,3.60
2022-07-16T22:42:00,pth,2.40
2022-07-16T22:44:00,pth,3.60
2022-07-16T22:46:00,pth,3.60
2022-07-16T22:48:00,pth,3.60
2022-07-16T22:49:00,pth,2.40
2022-07-16T22:51:00,pth,3.60
2022-07-16T22:52:00,pth,1.20
2022-07-16T22:54:00,pth,3.60
2022-07-16T22:55:00,pth,1.20
2022-07-16T22:57:00,pth,3.60
2022-07-16T22:59:00,pth,4.80
2022-07-16T23:01:00,pth,3.60
2022-07-16T23:02:00,pth,1.20
2022-07-16T23:04:00,pth,3.60
2022-07-16T23:06:00,pth,3.60
2022-07-16T23:07:00,pth,1.20
2022-07-16T23:09:00,pth,3.60
2022-07-16T23:11:00,pth,3.60
2022-07-16T23:12:00,pth,1.20
2022-07-16T23:13:00,pth,1.20
2022-07-16T23:15:00,pth,3.60
2022-07-16T23:17:00,pth,2.40
2022-07-16T23:19:00,pth,2.40
2022-07-16T23:21:00,pth,2.40
2022-07-16T23:22:00,pth,1.20
2022-07-16T23:24:00,pth,2.40
2022-07-16T23:26:00,pth,3.60
2022-07-16T23:28:00,pth,2.40
2022-07-16T23:29:00,pth,1.20
2022-07-16T23:31:00,pth,3.60
2022-07-16T23:33:00,pth,2.40
2022-07-16T23:34:00,pth,1.20
2022-07-16T23:36:00,pth,2.40
2022-07-16T23:37:00,pth,1.20
2022-07-16T23:39:00,pth,3.60
2022-07-16T23:41:00,pth,2.40
2022-07-16T23:43:00,pth,2.40
2022-07-16T23:45:00,pth,2.40
2022-07-16T23:47:00,pth,3.60
2022-07-16T23:49:00,pth,2.40